Time,TemperatureF,DewpointF,PressureIn,WindDirection,WindDirectionDegrees,WindSpeedMPH,WindSpeedGustMPH,Humidity,HourlyPrecipIn,Conditions,Clouds,dailyrainin,SoftwareType,DateUTC
2013-09-08 00:04:00,50.1,46.0,29.90,SSW,206,0.0,2.0,87,0.00,,,0.00,weatherlink.com 1.10,2013-09-08 06:04:00,
2013-09-08 00:19:00,49.5,46.0,29.90,WSW,249,0.0,0.0,87,0.00,,,0.00,weatherlink.com 1.10,2013-09-08 06:19:00,
2013-09-08 00:34:00,50.4,46.0,29.91,WNW,290,0.0,0.0,85,0.00,,,0.00,weatherlink.com 1.10,2013-09-08 06:34:00,
2013-09-08 00:49:00,50.7,46.0,29.90,WNW,287,2.0,3.0,83,0.00,,,0.00,weatherlink.com 1.10,2013-09-08 06:49:00,
2013-09-08 01:04:00,50.7,45.0,29.90,WNW,302,2.0,4.0,82,0.00,,,0.00,weatherlink.com 1.10,2013-09-08 07:04:00,
2013-09-08 01:19:00,50.7,45.0,29.90,NNE,27,0.0,2.0,82,0.00,,,0.00,weatherlink.com 1.10,2013-09-08 07:19:00,
2013-09-08 01:34:00,50.8,45.0,29.89,West,278,0.0,2.0,80,0.00,,,0.00,weatherlink.com 1.10,2013-09-08 07:34:00,
2013-09-08 01:49:00,50.8,45.0,29.89,WNW,285,0.0,1.0,81,0.00,,,0.00,weatherlink.com 1.10,2013-09-08 07:49:00,
2013-09-08 02:04:00,50.1,45.0,29.89,NW,314,0.0,3.0,83,0.00,,,0.00,weatherlink.com 1.10,2013-09-08 08:04:00,
2013-09-08 02:19:00,50.1,45.0,29.89,NE,52,0.0,3.0,81,0.00,,,0.00,weatherlink.com 1.10,2013-09-08 08:19:00,
2013-09-08 02:34:00,49.3,45.0,29.90,SSE,155,5.0,7.0,86,0.00,,,0.00,weatherlink.com 1.10,2013-09-08 08:34:00,
2013-09-08 02:50:00,49.2,46.0,29.89,SSE,151,0.0,0.0,87,0.00,,,0.00,weatherlink.com 1.10,2013-09-08 08:50:00,
2013-09-08 03:05:00,49.8,46.0,29.90,NW,315,4.0,6.0,86,0.00,,,0.00,weatherlink.com 1.10,2013-09-08 09:05:00,
2013-09-08 03:20:00,50.5,46.0,29.89,North,356,1.0,9.0,83,0.00,,,0.00,weatherlink.com 1.10,2013-09-08 09:20:00,
2013-09-08 03:35:00,50.6,46.0,29.89,NNW,333,3.0,3.0,83,0.00,,,0.00,weatherlink.com 1.10,2013-09-08 09:35:00,
2013-09-08 03:50:00,50.4,45.0,29.88,NNW,342,1.0,3.0,82,0.00,,,0.00,weatherlink.com 1.10,2013-09-08 09:50:00,
2013-09-08 04:05:00,49.8,45.0,29.87,NE,41,1.0,2.0,82,0.00,,,0.00,weatherlink.com 1.10,2013-09-08 10:05:00,
2013-09-08 04:20:00,49.2,45.0,29.87,NNW,332,1.0,3.0,85,0.00,,,0.00,weatherlink.com 1.10,2013-09-08 10:20:00,
2013-09-08 04:35:00,48.5,45.0,29.87,NNW,335,0.0,1.0,86,0.00,,,0.00,weatherlink.com 1.10,2013-09-08 10:35:00,
2013-09-08 04:50:00,46.9,44.0,29.88,NNW,340,0.0,1.0,88,0.00,,,0.00,weatherlink.com 1.10,2013-09-08 10:50:00,
2013-09-08 05:05:00,46.5,44.0,29.88,West,271,0.0,0.0,90,0.00,,,0.00,weatherlink.com 1.10,2013-09-08 11:05:00,
2013-09-08 05:20:00,46.2,44.0,29.88,WNW,288,0.0,0.0,90,0.00,,,0.00,weatherlink.com 1.10,2013-09-08 11:20:00,
2013-09-08 05:35:00,44.8,43.0,29.88,WNW,288,0.0,0.0,92,0.00,,,0.00,weatherlink.com 1.10,2013-09-08 11:35:00,
2013-09-08 05:50:00,44.0,42.0,29.88,WNW,288,0.0,0.0,93,0.00,,,0.00,weatherlink.com 1.10,2013-09-08 11:50:00,
2013-09-08 06:05:00,43.7,42.0,29.89,WNW,288,0.0,0.0,93,0.00,,,0.00,weatherlink.com 1.10,2013-09-08 12:05:00,
2013-09-08 06:20:00,43.5,41.0,29.89,WNW,299,0.0,0.0,92,0.00,,,0.00,weatherlink.com 1.10,2013-09-08 12:20:00,
2013-09-08 06:35:00,42.7,41.0,29.89,WNW,300,0.0,0.0,93,0.00,,,0.00,weatherlink.com 1.10,2013-09-08 12:35:00,
2013-09-08 06:50:00,41.8,40.0,29.89,NW,313,0.0,0.0,93,0.00,,,0.00,weatherlink.com 1.10,2013-09-08 12:50:00,
2013-09-08 07:05:00,42.0,40.0,29.89,NNW,330,0.0,1.0,94,0.00,,,0.00,weatherlink.com 1.10,2013-09-08 13:05:00,
2013-09-08 07:20:00,41.6,40.0,29.89,WNW,283,0.0,0.0,93,0.00,,,0.00,weatherlink.com 1.10,2013-09-08 13:20:00,
2013-09-08 07:35:00,44.1,43.0,29.89,NNW,342,0.0,0.0,94,0.00,,,0.00,weatherlink.com 1.10,2013-09-08 13:35:00,
2013-09-08 07:50:00,46.2,44.0,29.89,North,354,2.0,4.0,90,0.00,,,0.00,weatherlink.com 1.10,2013-09-08 13:50:00,
2013-09-08 08:05:00,47.7,44.0,29.89,North,353,0.0,2.0,88,0.00,,,0.00,weatherlink.com 1.10,2013-09-08 14:05:00,
2013-09-08 08:20:00,48.8,45.0,29.88,West,271,0.0,1.0,86,0.00,,,0.00,weatherlink.com 1.10,2013-09-08 14:20:00,
2013-09-08 08:35:00,49.5,45.0,29.88,NW,317,0.0,0.0,85,0.00,,,0.00,weatherlink.com 1.10,2013-09-08 14:35:00,
2013-09-08 08:50:00,50.6,45.0,29.87,NNE,23,0.0,0.0,82,0.00,,,0.00,weatherlink.com 1.10,2013-09-08 14:50:00,
2013-09-08 09:06:00,52.5,45.0,29.86,NW,321,0.0,0.0,77,0.00,,,0.00,weatherlink.com 1.10,2013-09-08 15:06:00,
2013-09-08 09:20:00,53.9,46.0,29.86,ENE,58,0.0,0.0,74,0.00,,,0.00,weatherlink.com 1.10,2013-09-08 15:20:00,
2013-09-08 09:35:00,55.1,47.0,29.85,North,351,0.0,0.0,73,0.00,,,0.00,weatherlink.com 1.10,2013-09-08 15:35:00,
2013-09-08 09:50:00,56.2,46.0,29.85,WSW,256,0.0,0.0,69,0.00,,,0.00,weatherlink.com 1.10,2013-09-08 15:50:00,
2013-09-08 10:06:00,57.6,46.0,29.84,NE,39,0.0,3.0,66,0.00,,,0.00,weatherlink.com 1.10,2013-09-08 16:06:00,
2013-09-08 10:21:00,59.9,47.0,29.83,East,96,1.0,2.0,62,0.00,,,0.00,weatherlink.com 1.10,2013-09-08 16:21:00,
2013-09-08 10:36:00,61.5,47.0,29.82,SSE,151,3.0,4.0,60,0.00,,,0.00,weatherlink.com 1.10,2013-09-08 16:36:00,
2013-09-08 10:51:00,62.3,48.0,29.81,NE,36,0.0,3.0,61,0.00,,,0.00,weatherlink.com 1.10,2013-09-08 16:51:00,
2013-09-08 11:06:00,64.1,48.0,29.80,ESE,120,1.0,2.0,57,0.00,,,0.00,weatherlink.com 1.10,2013-09-08 17:06:00,
2013-09-08 11:21:00,64.5,48.0,29.79,West,261,0.0,4.0,56,0.00,,,0.00,weatherlink.com 1.10,2013-09-08 17:21:00,
2013-09-08 11:36:00,63.8,49.0,29.78,WSW,249,0.0,1.0,60,0.00,,,0.00,weatherlink.com 1.10,2013-09-08 17:36:00,
2013-09-08 11:51:00,66.5,50.0,29.78,SSE,153,0.0,4.0,55,0.00,,,0.00,weatherlink.com 1.10,2013-09-08 17:51:00,
2013-09-08 12:06:00,67.2,47.0,29.77,SE,124,3.0,5.0,49,0.00,,,0.00,weatherlink.com 1.10,2013-09-08 18:06:00,
2013-09-08 12:21:00,66.6,46.0,29.76,East,87,6.0,6.0,47,0.00,,,0.00,weatherlink.com 1.10,2013-09-08 18:21:00,
2013-09-08 12:36:00,68.0,44.0,29.75,ENE,64,3.0,4.0,42,0.00,,,0.00,weatherlink.com 1.10,2013-09-08 18:36:00,
2013-09-08 12:51:00,69.7,41.0,29.75,NNW,330,0.0,9.0,36,0.00,,,0.00,weatherlink.com 1.10,2013-09-08 18:51:00,
2013-09-08 13:06:00,69.6,40.0,29.74,SE,125,8.0,12.0,34,0.00,,,0.00,weatherlink.com 1.10,2013-09-08 19:06:00,
2013-09-08 13:21:00,70.0,42.0,29.74,ESE,123,5.0,11.0,36,0.00,,,0.00,weatherlink.com 1.10,2013-09-08 19:21:00,
2013-09-08 13:36:00,72.2,44.0,29.73,South,183,8.0,11.0,36,0.00,,,0.00,weatherlink.com 1.10,2013-09-08 19:36:00,
2013-09-08 13:51:00,72.6,43.0,29.72,SSW,207,14.0,14.0,34,0.00,,,0.00,weatherlink.com 1.10,2013-09-08 19:51:00,
2013-09-08 14:06:00,72.6,42.0,29.72,SSW,193,6.0,12.0,33,0.00,,,0.00,weatherlink.com 1.10,2013-09-08 20:06:00,
2013-09-08 14:21:00,72.4,41.0,29.71,SW,226,1.0,10.0,32,0.00,,,0.00,weatherlink.com 1.10,2013-09-08 20:21:00,
2013-09-08 14:36:00,73.5,42.0,29.70,WSW,257,6.0,15.0,32,0.00,,,0.00,weatherlink.com 1.10,2013-09-08 20:36:00,
2013-09-08 14:51:00,73.7,39.0,29.69,South,172,8.0,19.0,29,0.00,,,0.00,weatherlink.com 1.10,2013-09-08 20:51:00,
2013-09-08 15:07:00,73.6,38.0,29.69,ESE,122,5.0,16.0,27,0.00,,,0.00,weatherlink.com 1.10,2013-09-08 21:07:00,
2013-09-08 15:22:00,74.1,36.0,29.68,SW,222,4.0,8.0,25,0.00,,,0.00,weatherlink.com 1.10,2013-09-08 21:22:00,
2013-09-08 15:37:00,74.8,39.0,29.67,WSW,238,8.0,13.0,27,0.00,,,0.00,weatherlink.com 1.10,2013-09-08 21:37:00,
2013-09-08 15:52:00,74.8,40.0,29.67,South,181,10.0,10.0,29,0.00,,,0.00,weatherlink.com 1.10,2013-09-08 21:52:00,
2013-09-08 16:07:00,75.4,41.0,29.66,SSW,193,10.0,14.0,29,0.00,,,0.00,weatherlink.com 1.10,2013-09-08 22:07:00,
2013-09-08 16:22:00,74.1,43.0,29.66,South,187,15.0,18.0,33,0.00,,,0.00,weatherlink.com 1.10,2013-09-08 22:22:00,
2013-09-08 16:37:00,73.1,43.0,29.65,SSW,199,7.0,14.0,34,0.00,,,0.00,weatherlink.com 1.10,2013-09-08 22:37:00,
2013-09-08 16:52:00,72.8,43.0,29.65,SW,215,6.0,16.0,34,0.00,,,0.00,weatherlink.com 1.10,2013-09-08 22:52:00,
2013-09-08 17:07:00,73.3,42.0,29.64,SSW,200,8.0,12.0,32,0.00,,,0.00,weatherlink.com 1.10,2013-09-08 23:07:00,
2013-09-08 17:22:00,70.7,42.0,29.64,SSW,210,6.0,11.0,35,0.00,,,0.00,weatherlink.com 1.10,2013-09-08 23:22:00,
2013-09-08 17:37:00,71.5,41.0,29.65,WSW,252,6.0,14.0,33,0.00,,,0.00,weatherlink.com 1.10,2013-09-08 23:37:00,
2013-09-08 17:52:00,70.6,42.0,29.65,South,188,5.0,15.0,36,0.00,,,0.00,weatherlink.com 1.10,2013-09-08 23:52:00,
2013-09-08 18:07:00,67.5,43.0,29.65,WSW,257,9.0,12.0,41,0.00,,,0.00,weatherlink.com 1.10,2013-09-09 00:07:00,
2013-09-08 18:22:00,66.9,42.0,29.65,WSW,252,10.0,12.0,40,0.00,,,0.00,weatherlink.com 1.10,2013-09-09 00:22:00,
2013-09-08 18:37:00,65.9,43.0,29.66,East,91,8.0,8.0,43,0.00,,,0.00,weatherlink.com 1.10,2013-09-09 00:37:00,
2013-09-08 18:53:00,65.8,43.0,29.66,ESE,114,4.0,7.0,43,0.00,,,0.00,weatherlink.com 1.10,2013-09-09 00:53:00,
2013-09-08 19:07:00,65.1,43.0,29.66,SSE,154,3.0,4.0,45,0.00,,,0.00,weatherlink.com 1.10,2013-09-09 01:07:00,
2013-09-08 19:22:00,63.7,43.0,29.66,SE,135,4.0,6.0,47,0.00,,,0.00,weatherlink.com 1.10,2013-09-09 01:22:00,
2013-09-08 19:37:00,61.6,44.0,29.66,East,96,1.0,3.0,52,0.00,,,0.00,weatherlink.com 1.10,2013-09-09 01:37:00,
2013-09-08 19:52:00,59.7,43.0,29.67,SE,135,2.0,3.0,55,0.00,,,0.00,weatherlink.com 1.10,2013-09-09 01:52:00,
2013-09-08 20:07:00,58.4,44.0,29.67,SW,218,0.0,3.0,59,0.00,,,0.00,weatherlink.com 1.10,2013-09-09 02:07:00,
2013-09-08 20:22:00,57.8,43.0,29.68,ENE,77,0.0,2.0,58,0.00,,,0.00,weatherlink.com 1.10,2013-09-09 02:22:00,
2013-09-08 20:37:00,56.7,44.0,29.68,NNW,346,1.0,3.0,62,0.00,,,0.00,weatherlink.com 1.10,2013-09-09 02:37:00,
2013-09-08 20:52:00,56.2,43.0,29.68,NW,321,2.0,3.0,62,0.00,,,0.00,weatherlink.com 1.10,2013-09-09 02:52:00,
2013-09-08 21:07:00,55.4,43.0,29.68,NW,324,2.0,3.0,64,0.00,,,0.00,weatherlink.com 1.10,2013-09-09 03:07:00,
2013-09-08 21:22:00,54.0,44.0,29.68,SSW,210,1.0,3.0,68,0.00,,,0.00,weatherlink.com 1.10,2013-09-09 03:22:00,
2013-09-08 21:37:00,52.5,43.0,29.68,East,82,0.0,2.0,71,0.00,,,0.00,weatherlink.com 1.10,2013-09-09 03:37:00,
2013-09-08 21:52:00,51.8,43.0,29.69,East,82,0.0,0.0,72,0.00,,,0.00,weatherlink.com 1.10,2013-09-09 03:52:00,
2013-09-08 22:07:00,51.7,43.0,29.70,East,81,0.0,0.0,73,0.00,,,0.00,weatherlink.com 1.10,2013-09-09 04:07:00,
2013-09-08 22:22:00,51.4,43.0,29.71,NW,324,0.0,1.0,72,0.00,,,0.00,weatherlink.com 1.10,2013-09-09 04:22:00,
2013-09-08 22:37:00,51.2,43.0,29.71,NW,314,0.0,0.0,74,0.00,,,0.00,weatherlink.com 1.10,2013-09-09 04:37:00,
2013-09-08 22:52:00,50.4,42.0,29.72,North,8,0.0,0.0,74,0.00,,,0.00,weatherlink.com 1.10,2013-09-09 04:52:00,
2013-09-08 23:07:00,49.3,43.0,29.72,West,278,0.0,0.0,78,0.00,,,0.00,weatherlink.com 1.10,2013-09-09 05:07:00,
2013-09-08 23:22:00,49.0,43.0,29.72,WNW,294,0.0,0.0,79,0.00,,,0.00,weatherlink.com 1.10,2013-09-09 05:22:00,
2013-09-08 23:37:00,48.0,42.0,29.72,WNW,294,0.0,0.0,80,0.00,,,0.00,weatherlink.com 1.10,2013-09-09 05:37:00,
2013-09-08 23:52:00,46.9,41.0,29.72,West,276,0.0,0.0,81,0.00,,,0.00,weatherlink.com 1.10,2013-09-09 05:52:00,